Weather History for Port Angeles, WA

Change the Weather History Date:

Thursday, January 30, 2014

  Actual Average Record
Temperature  
Mean Temperature 40 °F -  
Max Temperature 45 °F 45 °F 60 °F (1989)
Min Temperature 35 °F 34 °F 14 °F (1950)
Degree Days  
Heating Degree Days 25    
Moisture  
Dew Point 39 °F    
Average Humidity 90    
Maximum Humidity 100    
Minimum Humidity 76    
Precipitation  
Precipitation 0.17 in - - ()
Sea Level Pressure  
Sea Level Pressure 29.84 in    
Wind  
Wind Speed 3 mph (SSW)    
Max Wind Speed 9 mph    
Max Gust Speed -    
Visibility 10 miles    
Events Rain    
Averages and records for this station are not official NWS values.
T = Trace of Precipitation, MM = Missing Value Source: NWS Daily Summary

Daily Weather History Graph

Daily Weather History Graph

Search for Another Location

Airport:

Trip Planner

Search our weather history database for the weather conditions in past years. The results will help you decide how hot, cold, wet, or windy it might be!

Date:

Astronomy

Jan. 30, 2014 Rise Set
Actual Time 7:44 AM PST 5:10 PM PST
Civil Twilight 7:10 AM PST 5:44 PM PST
Nautical Twilight 6:33 AM PST 6:21 PM PST
Astronomical Twilight 5:56 AM PST 6:58 PM PST
Moon 7:11 AM PST (1/30) 5:34 PM PST (1/30)
Length of Visible Light 10h 33m
Length of Day
9h 26m
Waning Crescent, 0% of the Moon is Illuminated
Jan 30
Waning Crescent
Jan 30
New
Feb 6
First Quarter
Feb 14
Full
Feb 22
Last Quarter

Hourly Weather History & Observations

Time (PST) Temp. Windchill Dew Point Humidity Pressure Visibility Wind Dir Wind Speed Gust Speed Precip Events Conditions
12:53 AM 37.9 °F - 36.0 °F 93% 29.80 in 10.0 mi Calm Calm - N/A   Clear
1:53 AM 35.1 °F - 34.0 °F 96% 29.79 in 8.0 mi Calm Calm - N/A   Clear
2:53 AM 37.0 °F 34.5 °F 35.1 °F 93% 29.81 in 10.0 mi SSW 3.5 mph - N/A   Scattered Clouds
3:53 AM 37.0 °F 32.4 °F 35.1 °F 93% 29.80 in 10.0 mi SW 5.8 mph - N/A   Partly Cloudy
4:53 AM 36.0 °F 32.1 °F 34.0 °F 93% 29.80 in 10.0 mi SW 4.6 mph - N/A   Overcast
5:53 AM 39.0 °F 33.4 °F 36.0 °F 89% 29.79 in 10.0 mi SW 8.1 mph - N/A   Overcast
6:53 AM 41.0 °F 37.1 °F 36.0 °F 82% 29.80 in 10.0 mi WSW 5.8 mph - N/A   Overcast
7:53 AM 42.1 °F 37.1 °F 36.0 °F 79% 29.80 in 10.0 mi West 8.1 mph - N/A   Overcast
8:53 AM 43.0 °F 38.8 °F 36.0 °F 76% 29.81 in 10.0 mi West 6.9 mph - 0.01 in Rain Light Rain
9:53 AM 43.0 °F 37.7 °F 37.9 °F 82% 29.82 in 10.0 mi WSW 9.2 mph - 0.00 in   Overcast
10:53 AM 44.1 °F 40.1 °F 37.9 °F 79% 29.84 in 10.0 mi WSW 6.9 mph - 0.01 in   Overcast
11:53 AM 44.1 °F - 37.9 °F 79% 29.84 in 10.0 mi Calm Calm - 0.00 in Rain Light Rain
12:53 PM 45.0 °F - 39.9 °F 82% 29.83 in 10.0 mi Calm Calm - 0.01 in Rain Light Rain
1:53 PM 45.0 °F 43.5 °F 41.0 °F 86% 29.82 in 10.0 mi East 3.5 mph - 0.01 in Rain Light Rain
2:53 PM 45.0 °F 43.5 °F 39.9 °F 82% 29.82 in 10.0 mi ENE 3.5 mph - 0.02 in Rain Light Rain
3:19 PM 44.1 °F - 43.0 °F 96% 29.82 in 10.0 mi Calm Calm - 0.01 in Rain Light Rain
3:32 PM 44.1 °F - 44.1 °F 100% 29.82 in 10.0 mi Calm Calm - 0.01 in Rain Light Rain
3:53 PM 44.1 °F - 44.1 °F 100% 29.83 in 10.0 mi Calm Calm - 0.02 in Rain Light Rain
4:49 PM 42.8 °F 39.3 °F 42.8 °F 100% 29.83 in 10.0 mi SSE 5.8 mph - 0.03 in Rain Light Rain
4:53 PM 43.0 °F 38.8 °F 42.1 °F 97% 29.84 in 10.0 mi SSE 6.9 mph - 0.03 in Rain Light Rain
5:48 PM 42.8 °F 39.3 °F 39.2 °F 87% 29.84 in 10.0 mi SE 5.8 mph - 0.00 in   Overcast
5:53 PM 42.1 °F 38.4 °F 39.9 °F 92% 29.85 in 10.0 mi SE 5.8 mph - 0.00 in   Overcast
6:49 PM 42.8 °F - 39.2 °F 87% 29.85 in 10.0 mi Calm Calm - 0.01 in Rain Light Rain
6:53 PM 42.1 °F - 39.9 °F 92% 29.86 in 10.0 mi Calm Calm - 0.01 in Rain Light Rain
7:12 PM 42.1 °F 38.4 °F 39.0 °F 89% 29.86 in 5.0 mi NNE 5.8 mph - 0.00 in Rain Light Rain
7:19 PM 42.1 °F 40.2 °F 39.0 °F 89% 29.86 in 4.0 mi NE 3.5 mph - 0.01 in Rain Light Rain
7:53 PM 41.0 °F 37.1 °F 39.9 °F 96% 29.88 in 6.0 mi NE 5.8 mph - 0.02 in Rain Light Rain
8:34 PM 41.0 °F 37.1 °F 37.9 °F 89% 29.88 in 10.0 mi NNE 5.8 mph - 0.01 in Rain Light Rain
8:53 PM 41.0 °F 39.0 °F 39.0 °F 93% 29.89 in 10.0 mi Variable 3.5 mph - 0.01 in   Overcast
9:53 PM 41.0 °F 37.1 °F 39.0 °F 93% 29.91 in 10.0 mi Variable 5.8 mph - 0.00 in   Overcast
10:53 PM 39.9 °F 34.5 °F 39.0 °F 97% 29.92 in 10.0 mi North 8.1 mph - 0.00 in Rain Light Rain
11:26 PM 39.9 °F - 39.0 °F 97% 29.93 in 10.0 mi Calm Calm - 0.02 in Rain Light Rain
11:53 PM 39.0 °F - 39.0 °F 100% 29.94 in 10.0 mi Calm Calm - 0.02 in Rain Light Rain